TimeCDT,TemperatureF,Dew PointF,Humidity,Sea Level PressureIn,VisibilityMPH,Wind Direction,Wind SpeedMPH,Gust SpeedMPH,PrecipitationIn,Events,Conditions,WindDirDegrees,DateUTC
12:52 AM,48.9,43.0,80,30.30,10.0,SSW,6.9,-,N/A,,Clear,210,2013-04-27 05:52:00
1:52 AM,48.0,43.0,83,30.28,10.0,SSW,6.9,-,N/A,,Clear,210,2013-04-27 06:52:00
2:52 AM,45.0,42.1,90,30.27,10.0,South,5.8,-,N/A,,Clear,170,2013-04-27 07:52:00
3:52 AM,44.1,41.0,89,30.27,10.0,South,5.8,-,N/A,,Clear,170,2013-04-27 08:52:00
4:52 AM,45.0,42.1,90,30.26,8.0,South,3.5,-,N/A,,Clear,180,2013-04-27 09:52:00
5:52 AM,42.1,39.9,92,30.25,5.0,Calm,Calm,-,N/A,,Clear,0,2013-04-27 10:52:00
6:16 AM,42.8,41.0,93,30.25,1.5,Calm,Calm,-,N/A,,Clear,0,2013-04-27 11:16:00
6:24 AM,41.0,39.2,93,30.25,0.8,Calm,Calm,-,N/A,,Clear,0,2013-04-27 11:24:00
6:31 AM,41.0,41.0,100,30.25,2.0,Calm,Calm,-,N/A,,Clear,0,2013-04-27 11:31:00
6:42 AM,42.8,42.8,100,30.25,1.8,Calm,Calm,-,N/A,,Clear,0,2013-04-27 11:42:00
6:52 AM,43.0,43.0,100,30.26,2.5,Calm,Calm,-,N/A,,Clear,0,2013-04-27 11:52:00
6:59 AM,44.6,42.8,93,30.25,4.0,Calm,Calm,-,N/A,,Clear,0,2013-04-27 11:59:00
7:52 AM,50.0,46.0,86,30.26,7.0,South,5.8,-,N/A,,Clear,180,2013-04-27 12:52:00
8:52 AM,54.0,46.9,77,30.25,10.0,South,4.6,-,N/A,,Clear,180,2013-04-27 13:52:00
9:52 AM,57.0,46.0,67,30.22,10.0,ESE,5.8,-,N/A,,Clear,120,2013-04-27 14:52:00
10:52 AM,61.0,42.1,50,30.22,10.0,SSE,10.4,-,N/A,,Clear,150,2013-04-27 15:52:00
11:52 AM,64.0,42.1,45,30.21,10.0,South,11.5,21.9,N/A,,Clear,180,2013-04-27 16:52:00
12:52 PM,64.9,42.1,43,30.19,10.0,SSE,13.8,-,N/A,,Clear,150,2013-04-27 17:52:00
1:52 PM,64.9,41.0,42,30.16,10.0,SE,10.4,20.7,N/A,,Clear,130,2013-04-27 18:52:00
2:52 PM,66.9,39.9,37,30.13,10.0,SE,9.2,-,N/A,,Scattered Clouds,140,2013-04-27 19:52:00
3:52 PM,66.9,37.0,33,30.10,10.0,SSW,6.9,-,N/A,,Mostly Cloudy,200,2013-04-27 20:52:00
4:52 PM,66.9,39.0,36,30.08,10.0,SSE,10.4,17.3,N/A,,Overcast,150,2013-04-27 21:52:00
5:52 PM,66.0,41.0,40,30.06,10.0,SSE,9.2,-,N/A,,Overcast,150,2013-04-27 22:52:00
6:52 PM,64.9,39.9,40,30.05,10.0,SSE,8.1,-,N/A,,Overcast,150,2013-04-27 23:52:00
7:52 PM,63.0,39.9,43,30.05,10.0,ESE,6.9,-,N/A,,Overcast,110,2013-04-28 00:52:00
8:52 PM,61.0,39.9,46,30.04,10.0,East,8.1,-,N/A,,Overcast,90,2013-04-28 01:52:00
9:52 PM,59.0,39.9,49,30.03,10.0,East,5.8,-,N/A,,Overcast,80,2013-04-28 02:52:00
10:52 PM,57.0,39.9,53,30.01,10.0,ENE,6.9,-,N/A,,Overcast,70,2013-04-28 03:52:00
11:52 PM,55.9,42.1,60,30.00,10.0,ESE,5.8,-,N/A,,Overcast,110,2013-04-28 04:52:00